User: anonymous   Login
Location: Unspecified
(0.0000°N, 0.0000°E)
Time: 04:30:48
(UTC+02:00)
Language:

Cosmos 1315 Rocket - Orbit

View from above orbital plane
View from above orbital plane
View from above satellite
View from above satellite

Ground track
Ground track

The orbit data is extracted from the following two-line orbital elements,

1 12904U 81103B   17267.62017067 -.00000091 +00000-0 -79551-5 0  9995
2 12904 081.1787 162.0102 0029723 097.8803 262.5796 15.05344658507561
Epoch (UTC): 24 September 2017 14:53:02
Eccentricity: 0.0029723
inclination: 81.1787°
perigee height: 530 km
apogee height: 571 km
right ascension of ascending node: 162.0102°
argument of perigee: 97.8803°
revolutions per day: 15.05344658
mean anomaly at epoch: 262.5796°
orbit number at epoch: 50756

The dashed part of the orbit path shows where the satellite is in the earth's shadow,  

DLR